Location: Boda
(47.1872°N, 9.5454°E)
Time: 17:40:23
(UTC+00:00)

Cosmos 2369 - Pass Details

Date: 14 May 2021
Orbit: 839 x 855 km, 71.0° (Epoch: 15 June)

Event Time Altitude Azimuth Distance (km) Brightness Sun altitude
Exits shadow 02:09:06 20° 216° (SW) 1,890 4.9 -13.8°
Maximum altitude 02:13:12 73° 298° (WNW) 896 3.8 -13.3°
Drops below altitude 10° 02:18:57 10° 24° (NNE) 2,498 7.4 -12.7°
Sets 02:21:26 0° 27° (NNE) 3,437 8.4 -12.4°
